Location: Poughquag
(41.6090°N, 73.6820°W)
Time: 19:03:20
(UTC-04:00)

A-11 Canister half - All Passes

Search period start: 30 March 2020 00:00
Search period end: 09 April 2020 00:00
Orbit: 1517 x 1683 km, 47.2° (Epoch: 30 March)

Date Brightness Start Highest point End Pass type
(mag) Time Alt. Az. Time Alt. Az. Time Alt. Az.
30 Mar - 03:44:26 10° SE 03:46:56 11° ESE 03:49:26 10° ESE visible
30 Mar - 05:40:47 10° SSW 05:49:56 47° SE 05:59:24 10° ENE visible
30 Mar - 07:44:39 10° WSW 07:54:38 81° NNW 08:04:52 10° ENE daylight
30 Mar - 09:50:35 10° WNW 10:00:37 64° N 10:10:44 10° E daylight
30 Mar - 11:56:12 10° WNW 12:06:26 90° SSW 12:16:35 10° ESE daylight
30 Mar - 14:01:48 10° WNW 14:10:48 38° SW 14:19:41 10° SSE daylight
31 Mar - 05:18:02 10° SSW 05:27:04 45° SE 05:36:23 10° ENE visible
31 Mar - 07:21:42 10° WSW 07:31:39 83° NNW 07:41:53 10° ENE daylight
31 Mar - 09:27:35 10° W 09:37:35 64° N 09:47:43 10° E daylight
31 Mar - 11:33:14 10° WNW 11:43:27 88° NNE 11:53:38 10° ESE daylight
31 Mar - 13:38:45 10° WNW 13:47:56 40° SW 13:57:00 10° SSE daylight
01 Apr - 04:55:19 10° SSW 05:04:12 42° SE 05:13:21 10° ENE visible
01 Apr - 06:58:47 10° WSW 07:08:41 85° NNW 07:18:54 10° ENE daylight
01 Apr - 09:04:36 10° W 09:14:35 64° N 09:24:42 10° E daylight
01 Apr - 11:10:16 10° WNW 11:20:30 85° NNE 11:30:41 10° ESE daylight
01 Apr - 13:15:44 10° WNW 13:25:03 43° SW 13:34:16 10° SSE daylight
02 Apr - 04:32:37 10° SSW 04:41:20 40° SE 04:50:19 10° ENE visible
02 Apr - 06:35:51 10° WSW 06:45:43 88° NNW 06:55:56 10° ENE daylight
02 Apr - 08:41:37 10° W 08:51:34 64° N 09:01:41 10° E daylight
02 Apr - 10:47:18 10° WNW 10:57:31 83° NNE 11:07:43 10° ESE daylight
02 Apr - 12:52:43 10° WNW 13:02:10 45° SW 13:11:32 10° SSE daylight
02 Apr - 15:03:48 10° WSW 15:05:12 10° WSW 15:06:35 10° SW daylight
03 Apr - 04:09:56 10° SSW 04:18:29 37° SE 04:27:17 10° ENE visible
03 Apr - 06:12:55 10° WSW 06:22:47 90° SE 06:32:57 10° ENE daylight
03 Apr - 08:18:38 10° W 08:28:33 64° N 08:38:40 10° E daylight
03 Apr - 10:24:21 10° WNW 10:34:32 81° NNE 10:44:45 10° ESE daylight
03 Apr - 12:29:44 10° WNW 12:39:16 48° SW 12:48:45 10° SSE daylight
03 Apr - 14:39:17 10° WSW 14:42:24 12° WSW 14:45:31 10° SW daylight
04 Apr - 03:47:17 10° SSW 03:55:38 35° SE 04:04:14 10° ENE visible
04 Apr - 05:50:01 10° WSW 05:59:49 87° SSE 06:09:58 10° ENE visible
04 Apr - 07:55:38 10° W 08:05:32 64° N 08:15:39 10° ENE daylight
04 Apr - 10:01:24 10° WNW 10:11:33 79° NNE 10:21:46 10° ESE daylight
04 Apr - 12:06:45 10° WNW 12:16:23 51° SW 12:25:59 10° SSE daylight
04 Apr - 14:15:28 10° W 14:19:35 13° WSW 14:23:44 10° SW daylight
05 Apr - 03:24:39 10° S 03:32:48 32° SE 03:41:09 10° ENE visible
05 Apr - 05:27:07 10° WSW 05:36:53 84° SSE 05:47:00 10° ENE visible
05 Apr - 07:32:39 10° W 07:42:31 65° N 07:52:38 10° ENE daylight
05 Apr - 09:38:26 10° WNW 09:48:33 77° NNE 09:58:46 10° ESE daylight
05 Apr - 11:43:45 10° WNW 11:53:29 54° SW 12:03:11 10° SSE daylight
05 Apr - 13:51:52 10° W 13:56:47 15° WSW 14:01:41 10° SSW daylight
06 Apr - 03:02:03 10° S 03:09:57 30° SE 03:18:05 10° ENE visible
06 Apr - 05:04:14 10° SW 05:13:56 81° SSE 05:24:01 10° ENE visible
06 Apr - 07:09:40 10° W 07:19:31 65° N 07:29:37 10° ENE daylight
06 Apr - 09:15:29 10° WNW 09:25:34 75° NNE 09:35:47 10° ESE daylight
06 Apr - 11:20:47 10° WNW 11:30:35 56° SW 11:40:21 10° SE daylight
06 Apr - 13:28:26 10° W 13:33:57 16° WSW 13:39:29 10° SSW daylight
07 Apr - 02:39:28 10° S 02:47:08 28° SE 02:54:59 10° ENE visible
07 Apr - 04:41:21 10° SW 04:51:01 78° SSE 05:01:03 10° ENE visible
07 Apr - 06:46:41 10° W 06:56:30 66° N 07:06:37 10° ENE daylight
07 Apr - 08:52:31 10° WNW 09:02:35 73° NNE 09:12:46 10° ESE daylight
07 Apr - 10:57:48 10° WNW 11:07:39 59° SW 11:17:32 10° SE daylight
07 Apr - 13:05:05 10° W 13:11:08 18° SW 13:17:12 10° SSW daylight
08 Apr - 02:16:55 10° S 02:24:18 26° SE 02:31:52 10° ENE visible
08 Apr - 04:18:30 10° SW 04:28:05 75° SSE 04:38:04 10° ENE visible
08 Apr - 06:23:44 10° W 06:33:30 67° N 06:43:36 10° ENE daylight
08 Apr - 08:29:33 10° WNW 08:39:35 72° NNE 08:49:46 10° E daylight
08 Apr - 10:34:51 10° WNW 10:44:45 62° SW 10:54:41 10° SE daylight
08 Apr - 12:41:48 10° W 12:48:19 19° SW 12:54:50 10° SSW daylight
